[Iaude] MPEC L02: 2024 KO1 [a=2.00,e=0.48,i=4.9,H=27.0]
    mpec at cfa.harvard.edu 
    mpec at cfa.harvard.edu
       
    Fri May 31 21:57:52 EDT 2024
    
    
  
M.P.E.C. 2024-L02                                  Issued 2024 June 1, 01:56 UT
     The Minor Planet Electronic Circulars contain information on unusual
         minor planets, routine data on comets and natural satellites,
         and occasional editorial announcements.  They are published
    on behalf of Division F of the International Astronomical Union by the
          Minor Planet Center, Smithsonian Astrophysical Observatory,
                          Cambridge, MA 02138, U.S.A.
			  
             Prepared using the Tamkin Foundation Computer Network
                              MPC at CFA.HARVARD.EDU
            URL https://www.minorplanetcenter.net/    ISSN 1523-6714
                                    2024 KO1                                    
Observations:
     K24K01O  C2024 05 26.26442314 07 59.353+14 08 04.70         21.12GVEL002F52
     K24K01O  C2024 05 26.27616314 08 08.953+14 06 30.36         20.48GVEL002F52
     K24K01O*1C2024 05 31.35902716 20 18.168-07 56 32.03         20.13GVEL002G96
     K24K01O 1C2024 05 31.36424816 20 29.486-07 58 31.19               VEL002G96
     K24K01O 1C2024 05 31.36947116 20 41.111-08 00 34.34         19.31GVEL002G96
     K24K01O 1C2024 05 31.37469316 20 52.818-08 02 37.39         19.17GVEL002G96
     K24K01O  C2024 05 31.40075016 21 50.021-08 12 53.77         19.3 GVEL002H01
     K24K01O mC2024 05 31.40088316 21 51.322-08 12 49.72         18.92GVEL002I52
     K24K01O mC2024 05 31.40108816 21 51.772-08 12 54.65         18.80GVEL002I52
     K24K01O mC2024 05 31.40129316 21 52.232-08 12 59.22         18.87GVEL002I52
     K24K01O mC2024 05 31.40150916 21 52.700-08 13 04.40         19.13GVEL002I52
     K24K01O  C2024 05 31.40453916 21 58.563-08 14 22.30         19.1 GVEL002H01
     K24K01O  C2024 05 31.41491616 22 22.038-08 18 24.67         19.1 GVEL002H01
     K24K01O  C2024 05 31.42333416 22 41.165-08 21 41.48         19.2 GVEL002H01
     K24K01O KC2024 05 31.44786716 23 37.892-08 31 07.75               VEL002I52
     K24K01O KC2024 05 31.44851016 23 39.343-08 31 22.58         19.23GVEL002I52
     K24K01O KC2024 05 31.44914816 23 40.808-08 31 37.34         19.31GVEL002I52
     K24K01O KB2024 05 31.66856916 32 45.564-09 59 15.22         18.3 GXEL002Q06
     K24K01O KB2024 05 31.67442816 32 59.005-10 01 33.95         18.9 GXEL002Q06
     K24K01O KB2024 05 31.68024116 33 12.407-10 03 52.07         17.6 GXEL002Q06
     K24K01O KC2024 05 31.89115 16 42 17.60 -11 28 40.5          18.8 GXEL002K83
     K24K01O KC2024 05 31.89970 16 42 38.06 -11 32 06.7          18.7 GXEL002K83
     K24K01O KC2024 05 31.93744 16 44 08.21 -11 47 17.5          19.2 GVEL002104
     K24K01O KC2024 05 31.94819 16 44 33.82 -11 51 35.7                VEL002104
     K24K01O KB2024 06 01.02201716 47 35.33 -12 21 01.0          19.2 GXEL002958
     K24K01O KB2024 06 01.02540816 47 43.51 -12 22 21.5          18.7 GXEL002958
     K24K01O KB2024 06 01.02881316 47 51.67 -12 23 42.2          19.1 GXEL002958
Observer details:
104 San Marcello Pistoiese.  Observers P. Bacci, M. Maestripieri.  Measurer P.
    Bacci.  0.60-m f/4.0 reflector + CCD.
958 Observatoire de Dax.  Observer P. Dupouy.  0.50-m f/4.5 Reflector + CMO.
F52 Pan-STARRS 2, Haleakala.  Observers J. Herman, T. Lowe, P. Minguez, A.
    Schultz, I. Smith.  Measurers K. Chambers, T. de Boer, J. Fairlamb, H.
    Gao, M. Huber, C.-C. Lin, E. Magnier, Y. Ramanjooloo, R. Wainscoat, R.
    Weryk.  1.8-m Ritchey-Chretien + CCD.
G96 Mt. Lemmon Survey.  Observer T. Beuden.  Measurers T. Beuden, V. F.
    Carvajal, D. Fay, J. B. Fazekas, D. C. Fuls, A. R. Gibbs, A. D. Grauer, H.
    Groeller, J. K. Hogan, R. A. Kowalski, S. M. Larson, G. J. Leonard, D.
    Rankin, R. L. Seaman, F. C. Shelly, K. W. Wierzchos.  1.5-m reflector +
    10K CCD.
H01 Magdalena Ridge Observatory, Socorro.  Observers W. H. Ryan, E. V. Ryan.
    Measurer W. H. Ryan.  2.4-m f/8.9 Ritchey-Chretien + CCD.
I52 Steward Observatory, Mt. Lemmon Station.  Observer V. F. Carvajal.
    Measurers T. Beuden, V. F. Carvajal, D. Fay, J. B. Fazekas, D. C. Fuls, A.
    R. Gibbs, A. D. Grauer, H. Groeller, J. K. Hogan, R. A. Kowalski, S. M.
    Larson, G. J. Leonard, D. Rankin, R. L. Seaman, F. C. Shelly, K. W.
    Wierzchos.  1.0-m prime focus + CCD.
K83 Beppe Forti Astronomical Observatory, Montelupo.  Observers M. Tombelli,
    G. Interrante, A. Mazzanti, E. Venticinque, M. Lombardo, M. Iozzi.
    Measurers M. Tombelli, F. Bernardi, A. Squilloni, F. Cheli.  0.40-m f/8
    Ritchey-Chretien + CCD.
Q06 Tarui Observatory, Tarui.  Observer H. Watanabe.  0.35-m f/1.9 Schmidt-
    Cassegrain + CMO.
Orbital elements:
2024 KO1                                                 Earth MOID = 0.0181 AU
Epoch 2024 Mar. 31.0 TT = JDT 2460400.5                 MPC                     
M 338.43508              (2000.0)            P               Q                  
n   0.34771081     Peri.  177.79577     -0.33046440     +0.94033004             
a   2.0028907      Node    72.89922     -0.86722904     -0.26862978             
e   0.4845595      Incl.    4.86580     -0.37243399     -0.20884792             
P   2.83           H   27.09          G   0.15           U   8                  
Residuals in seconds of arc
240526 F52  0.1-  0.1+    240531 I52  0.1-  0.1+    240531 Q06  0.5+  0.3+
240526 F52  0.1+  0.1-    240531 I52  0.4-  0.1-    240531 Q06  0.4+  0.1+
240531 G96  1.3+  1.3-    240531 H01  0.2-  0.2+    240531 K83  0.9-  0.2-
240531 G96 (2.3-  1.7+)   240531 H01  0.1-  0.2+    240531 K83  0.3-  0.0
240531 G96  1.7-  0.8+    240531 H01  0.1+  0.0     240531 104  0.4+  0.5-
240531 G96  0.1-  0.1-    240531 I52  0.5+  0.3-    240531 104  0.2-  0.5-
240531 H01  0.1-  0.2+    240531 I52  0.2+  0.1-    240601 958  0.1-  0.2-
240531 I52  0.0   0.0     240531 I52  0.3+  0.1+    240601 958  0.4+  0.3+
240531 I52  0.2-  0.1-    240531 Q06  1.4+  0.1-    240601 958  0.1+  0.8+
Ephemeris:
2024 KO1                 a,e,i = 2.00, 0.48, 5                   q = 1.0324
Date    TT    R. A. (2000) Decl.     Delta      r    Elong.  Phase     V
2024 05 02    12 33 10.8 +24 45 16   0.1225  1.0902   129.8    45.3    24.4
...
2024 05 17    12 56 37.7 +23 14 55   0.06468 1.0473   122.4    54.6    23.2
...
2024 05 25    13 50 38.7 +16 37 43   0.03529 1.0357   129.6    48.9    21.7
...
2024 05 31    16 06 38.8 -05 32 47   0.01941 1.0324   162.5    17.2    19.5
2024 06 01    16 46 39.3 -12 05 25   0.01858 1.0323   169.7    10.1    19.2
2024 06 02    17 30 29.2 -18 31 38   0.01861 1.0324   167.7    12.1    19.2
...
2024 06 08    20 54 49.6 -34 20 44   0.03206 1.0355   128.9    49.7    21.5
...
2024 06 16    22 16 21.8 -34 25 21   0.06091 1.0470   119.3    57.8    23.2
...
2024 07 01    22 47 05.4 -33 37 00   0.1179  1.0895   125.5    49.4    24.5
A. U. Tomatic                (C) Copyright 2024 MPC           M.P.E.C. 2024-L02
    
    
More information about the Iaude
mailing list